Dewpoint
48 49 50 50 50 50 51 52 52 53 53 54 54 55 56 57 58 60 61 61 62 62 63 62 62 62 62 62 62 63 63 63 63 63 62 62 62 62 62 62 62 63 63 63 64 64 64 64 63 63 63 62 62 61 61 60 60 61 60 60 60 60 60 59 58 57 59 60 60 59 61 62 60 60 60 60 60 58 56 57 57 58 57 57 56
48 48 49 49 49 49 50 51 51 52 52 53 54 54 54 56 56 58 60 61 62 62 62 62 62 62 62 62 63 63 64 63 63 63 63 62 62 62 62 62 62 62 62 61 62 63 63 63 63 64 63 62 62 61 61 60 59 59 59 59 59 60 60 59 58 58 58 58 59 60 60 61 60 60 61 61 61 59 58 57 57 56 56 57 56
48 48 48 48 48 49 49 50 50 51 51 52 52 52 53 54 56 57 58 60 61 62 62 62 63 63 63 63 63 63 63 63 63 63 62 62 62 62 62 62 62 62 62 62 62 62 62 63 63 63 64 63 63 62 62 61 60 59 59 59 59 60 60 59 59 58 58 58 59 58 59 59 60 59 59 60 61 60 58 57 57 56 56 58 56
47 47 47 47 48 48 48 49 50 50 50 51 51 51 52 53 55 57 57 58 59 60 61 62 62 63 63 63 63 63 63 63 63 63 62 62 61 61 61 61 62 62 62 62 62 63 63 62 63 63 63 63 63 63 62 62 61 60 60 60 59 59 60 60 60 59 59 58 59 57 59 60 59 59 59 59 60 60 59 60 59 57 57 56 56
46 46 46 46 47 47 48 48 49 49 50 50 50 51 52 53 55 56 57 58 58 59 59 61 62 62 62 62 63 63 63 63 63 63 63 63 63 63 62 62 62 62 62 62 62 62 63 63 63 63 63 63 63 63 62 62 61 61 61 60 59 60 60 60 60 60 59 58 59 59 60 59 60 60 59 59 59 59 60 59 59 57 57 57 56
45 46 46 46 46 47 48 48 49 49 50 50 50 51 52 53 54 56 56 57 58 59 59 60 61 62 62 63 63 63 63 63 62 62 62 62 62 63 63 62 63 62 62 62 62 62 62 62 63 63 63 63 63 63 63 62 62 62 61 61 60 60 60 60 60 60 59 59 59 59 59 59 60 60 60 59 59 58 57 57 57 57 57 57 56
44 45 45 45 45 46 46 47 48 48 49 50 50 51 51 52 53 53 55 56 57 58 59 60 61 62 62 62 63 63 63 63 62 62 62 62 62 62 62 62 62 62 62 62 62 62 63 63 63 63 63 63 63 63 63 63 63 62 62 62 61 61 61 60 60 60 59 59 59 59 59 60 60 59 60 59 59 59 59 58 57 55 56 56 56
43 44 45 45 45 45 46 47 47 48 48 48 49 50 50 50 51 52 54 54 56 56 57 59 60 61 61 62 62 62 62 62 62 62 62 62 62 61 61 62 62 62 62 62 63 63 63 63 63 63 63 63 63 63 63 63 63 63 63 63 62 62 61 61 61 60 60 59 59 59 60 59 61 60 58 59 58 57 56 57 58 58 57 56 56
42 43 44 44 45 45 46 46 47 47 46 47 47 48 49 49 50 51 52 54 55 56 57 58 59 60 61 61 61 62 62 62 61 59 60 62 63 62 62 62 62 62 62 62 63 63 63 63 63 63 63 63 60 60 61 61 63 63 63 63 63 62 62 61 61 61 60 60 60 60 61 60 60 60 59 59 58 59 59 57 57 58 58 57 56
42 43 43 44 44 44 45 45 45 45 45 46 46 47 48 49 50 50 51 53 54 56 56 57 58 58 59 60 61 59 48 45 45 43 43 47 52 56 59 62 63 63 62 62 63 63 63 63 63 63 61 59 58 55 54 54 57 62 63 63 63 63 62 62 61 61 61 60 60 60 60 60 60 60 60 60 60 61 60 58 56 57 57 56 57
41 42 42 43 43 43 44 44 44 44 44 45 45 46 47 48 49 49 49 50 52 54 55 55 55 57 58 54 47 44 44 42 41 39 39 41 47 52 55 57 59 61 62 63 62 63 63 63 63 63 62 60 59 55 53 52 51 51 54 57 60 63 62 62 61 61 61 60 61 60 60 60 60 60 60 60 61 60 60 59 58 58 57 56 56
41 42 43 43 42 42 42 43 43 43 44 44 45 45 46 47 47 47 47 48 49 51 52 52 52 54 53 46 45 45 42 41 38 38 38 39 43 49 53 56 57 58 59 60 61 61 61 62 63 64 63 63 63 62 57 53 51 50 50 51 52 52 55 62 63 62 62 62 61 61 60 60 60 61 60 61 60 60 60 60 59 58 57 56 57
40 41 42 42 42 42 42 42 42 42 43 43 44 45 45 45 46 46 46 47 47 47 48 49 50 51 52 48 45 42 40 40 38 38 37 38 39 46 52 54 56 57 58 59 60 60 61 61 62 63 63 63 62 63 63 62 54 51 51 51 51 50 48 48 52 62 63 62 62 61 61 61 60 60 61 61 62 60 60 59 59 59 58 58 58
40 41 41 42 42 41 41 42 42 42 42 43 43 44 44 44 44 44 45 45 44 45 46 47 47 47 47 48 47 42 39 39 37 37 37 37 38 42 48 52 54 55 56 57 58 59 60 61 61 61 62 63 63 63 63 64 63 60 57 57 58 57 52 48 47 47 54 61 63 62 62 61 61 61 61 61 61 60 60 59 60 59 58 58 59
40 40 41 41 41 41 41 41 41 41 41 42 43 43 43 44 43 42 43 43 43 44 44 45 45 44 44 44 46 44 39 38 37 36 36 36 37 41 45 47 48 49 51 51 53 56 58 59 60 60 61 62 62 61 62 62 62 63 62 61 61 61 61 60 58 57 57 58 60 62 63 62 62 62 62 62 61 62 62 61 61 60 60 60 60
39 40 40 41 41 40 40 41 41 41 41 41 41 41 42 42 42 41 42 41 41 42 42 43 42 41 41 41 41 43 40 37 37 36 36 36 38 41 42 44 45 45 45 44 45 47 51 54 57 58 59 60 58 52 53 59 61 61 61 62 62 62 61 59 55 55 59 60 60 61 62 63 58 62 61 62 62 62 62 62 63 60 59 58 57
39 40 40 40 41 40 40 41 40 40 40 40 40 41 41 41 41 40 39 39 39 40 41 41 40 40 40 40 39 40 40 38 36 36 36 36 37 37 39 39 41 41 41 41 42 44 46 48 50 53 56 58 53 44 43 46 55 58 60 60 61 62 63 63 54 50 50 50 51 52 52 52 52 51 51 51 58 61 64 62 61 60 58 57 57
39 40 39 40 40 40 40 40 40 40 39 39 40 40 40 41 40 39 39 38 38 38 40 39 39 39 38 38 39 38 39 39 37 36 36 36 37 35 36 36 37 38 37 37 39 40 42 45 47 46 49 51 42 40 40 45 50 52 54 56 59 60 61 63 63 60 50 48 48 48 49 49 50 49 49 48 48 54 62 61 61 60 59 58 58
38 39 39 39 39 40 40 40 40 39 39 39 39 39 40 40 39 38 38 38 38 38 40 39 38 38 38 37 40 37 38 37 37 36 35 35 36 35 34 35 35 35 35 35 38 38 39 41 43 43 42 43 39 40 40 42 45 46 48 51 54 56 60 62 62 62 61 60 58 56 53 52 54 56 57 50 49 51 60 62 62 60 59 58 58
38 39 39 39 39 40 39 40 40 39 38 38 39 39 40 40 39 38 37 37 37 37 38 38 37 37 37 37 36 36 37 36 36 36 35 35 35 35 34 34 34 34 34 36 36 37 37 38 40 39 38 39 39 39 39 38 40 41 43 46 50 53 57 57 57 60 62 62 61 61 59 59 59 59 58 58 56 56 57 61 63 62 60 59 59
39 38 38 38 39 39 38 38 38 38 39 39 39 39 39 39 38 37 37 37 36 36 37 37 37 36 36 36 35 35 37 36 35 35 35 35 35 34 33 33 33 33 34 35 35 36 36 37 38 39 38 38 38 38 38 37 38 40 41 43 48 52 48 51 53 53 58 59 61 61 61 60 60 60 60 59 59 58 57 57 61 62 61 60 59
38 38 38 38 39 38 38 38 38 38 39 39 38 37 38 39 38 37 36 36 36 35 36 36 36 35 36 35 35 35 36 37 34 34 34 34 34 34 33 33 33 34 34 34 35 36 36 37 38 39 38 38 38 37 37 37 37 40 41 39 40 40 45 49 51 54 56 57 59 60 61 61 61 61 60 59 59 58 58 57 58 61 62 62 61
37 37 38 37 38 38 38 37 37 37 38 39 38 36 37 37 37 36 36 35 35 35 35 35 35 34 35 34 34 34 34 34 34 33 34 34 34 33 33 33 34 35 34 34 35 35 36 37 38 40 37 37 37 37 37 37 38 40 38 38 38 39 41 46 48 52 54 56 57 58 60 61 61 60 60 60 59 59 59 58 58 59 60 61 61
37 37 38 37 37 38 37 37 37 36 37 37 38 36 35 36 36 35 35 35 34 34 34 35 34 33 33 33 34 33 33 33 33 33 33 33 33 33 33 33 34 34 35 34 35 36 36 37 38 36 37 37 37 37 37 38 39 38 38 38 38 39 43 45 48 51 53 54 55 56 58 60 61 61 60 60 60 60 60 60 59 59 59 60 61
37 36 36 36 36 36 36 35 36 36 36 36 36 36 35 35 35 35 35 34 34 33 33 34 33 33 32 32 32 32 33 32 31 32 33 33 33 33 33 33 34 34 34 35 36 36 35 35 36 37 37 38 38 38 39 40 39 39 39 39 42 44 45 47 49 51 53 54 55 56 57 58 60 61 62 61 61 61 61 61 60 60 60 60 61
37 36 36 36 35 36 35 35 35 35 36 36 37 37 35 35 34 34 34 34 33 33 33 33 32 32 32 31 31 32 32 31 31 31 33 33 32 32 32 33 34 34 34 34 34 34 35 36 37 37 38 39 41 41 41 42 40 39 39 40 43 43 44 46 48 50 52 54 54 55 57 59 60 61 61 61 61 60 60 60 60 59 60 59 59
38 36 35 36 35 35 35 36 35 35 35 35 35 36 36 35 34 35 34 33 33 33 32 32 31 31 31 31 31 31 31 31 30 30 30 30 30 31 31 31 33 33 33 32 33 33 35 35 35 35 36 37 37 39 40 41 43 44 46 47 46 46 46 47 48 50 52 54 54 56 57 59 60 59 60 60 60 61 61 59 60 60 59 59 59
35 34 34 35 36 36 36 36 36 34 34 35 34 34 35 35 34 34 33 32 32 32 32 31 30 30 30 30 31 31 30 30 31 30 30 30 30 30 30 31 30 30 31 31 31 32 32 33 32 33 33 34 35 36 37 37 39 40 41 44 46 49 49 48 48 51 52 53 55 56 56 58 59 59 60 60 60 60 60 59 59 60 59 59 58
36 33 34 33 34 37 36 35 35 35 34 34 34 35 35 35 34 34 35 35 34 33 32 31 31 30 29 29 30 30 30 30 31 32 31 31 31 30 30 30 30 30 32 32 31 30 29 29 29 29 29 30 31 31 32 33 34 34 36 37 38 41 45 50 51 52 52 53 53 54 55 56 57 58 59 59 59 60 61 60 59 60 60 60 58
33 34 35 34 35 36 36 34 33 35 33 33 34 34 34 35 35 34 34 36 35 35 34 33 32 31 30 30 30 29 30 30 32 31 31 31 31 31 31 31 31 30 31 32 30 28 27 27 27 27 27 27 28 28 29 30 30 30 31 33 35 37 37 38 42 47 50 52 53 54 54 55 56 57 58 58 59 60 59 54 59 59 59 59 58
36 33 36 35 34 36 35 34 34 33 33 33 33 34 33 33 34 34 35 36 35 34 34 34 34 33 31 29 30 30 31 31 31 31 31 31 31 31 31 31 31 30 30 30 29 27 26 26 26 26 26 26 26 26 27 27 28 29 29 30 32 33 33 35 37 37 37 40 48 52 54 54 55 56 56 57 58 59 60 59 59 59 59 58 58
35 33 34 34 35 34 33 33 34 34 33 32 33 33 32 32 32 33 34 34 34 34 34 34 34 33 32 31 30 29 30 30 30 31 30 30 30 30 30 30 30 30 30 29 29 28 26 24 24 25 25 25 25 25 26 26 26 26 27 28 29 30 31 32 33 35 36 37 39 43 51 53 54 54 55 56 53 57 58 58 59 58 58 59 59
33 32 32 34 34 34 34 34 33 32 32 32 32 32 32 32 31 31 32 33 33 33 33 34 33 33 31 30 30 29 30 30 30 30 30 30 29 29 29 29 29 29 29 27 27 28 27 26 23 23 23 25 24 24 24 25 25 25 25 26 27 28 29 29 31 32 33 34 35 38 42 50 52 51 50 52 53 55 56 57 58 58 58 57 56
33 33 34 34 33 32 32 33 32 32 31 31 31 32 32 32 31 31 31 30 29 30 31 32 32 33 30 29 29 28 29 29 29 29 29 29 29 29 28 27 28 28 27 26 25 25 26 27 25 23 22 23 24 24 24 24 24 24 24 25 25 25 26 27 28 30 31 32 33 34 35 37 41 51 53 54 54 55 55 54 56 57 57 58 58
31 32 31 33 32 32 31 30 31 31 31 31 31 31 31 31 31 31 31 29 28 27 28 28 30 31 27 28 29 27 28 28 28 28 28 28 28 28 27 25 25 25 25 25 25 25 25 26 26 25 22 22 23 24 23 23 23 23 24 24 24 24 25 25 27 27 28 30 31 32 33 34 36 36 40 48 51 52 53 54 56 56 57 57 57
30 30 31 31 32 31 30 31 31 31 31 31 30 31 30 30 31 31 30 29 28 27 27 28 28 28 27 28 28 26 27 27 27 27 27 27 27 26 24 24 23 23 24 24 24 25 25 25 25 26 24 22 21 22 22 23 22 23 23 24 24 24 24 25 25 25 26 27 29 30 31 33 34 34 35 36 39 46 53 54 54 54 55 56 56
29 28 28 28 29 30 30 30 30 30 29 30 30 29 28 29 29 30 29 28 27 27 27 27 27 26 26 27 27 25 26 25 25 25 25 25 25 24 22 22 23 23 23 23 23 24 24 24 24 24 25 23 20 21 22 22 22 22 24 24 24 24 24 25 25 25 25 26 27 28 29 30 32 32 33 32 33 37 40 44 50 49 48 48 47
28 27 27 28 29 30 31 32 31 29 30 28 28 30 28 28 28 28 28 28 28 26 26 26 27 24 24 25 28 24 23 24 23 22 22 23 23 21 22 22 22 22 22 22 22 22 23 23 24 24 24 24 21 20 22 23 22 22 23 23 24 23 25 24 24 24 24 26 26 27 28 29 31 31 31 32 32 33 34 35 40 45 47 44 47
27 26 25 26 27 30 31 31 30 29 27 27 27 29 29 28 28 28 28 27 26 26 26 26 25 24 25 25 24 24 21 21 21 20 20 20 20 20 20 21 21 21 22 22 22 22 22 23 23 23 23 24 22 22 21 22 21 21 21 22 22 22 22 22 22 23 23 23 24 26 26 27 28 30 31 32 32 33 34 35 36 39 44 47 49
27 27 27 27 29 30 30 30 29 28 27 27 27 28 28 28 28 28 28 27 26 26 26 25 24 24 25 25 23 22 20 20 21 20 19 19 20 20 19 19 20 20 20 21 21 21 21 22 22 22 22 23 23 21 20 21 21 21 20 21 20 20 20 21 21 21 21 22 22 23 24 26 27 29 31 32 33 34 34 34 34 35 38 43 47
26 27 27 28 28 29 28 29 29 28 27 27 27 27 27 28 28 27 27 27 26 26 26 26 24 25 26 25 25 23 20 21 21 20 19 19 19 19 19 19 19 19 19 20 20 21 21 21 21 21 21 22 23 21 19 20 20 20 19 19 19 19 19 19 20 20 21 21 21 22 23 25 26 28 30 32 33 33 33 34 35 35 36 38 44
26 27 28 28 28 27 28 27 27 27 26 26 26 26 26 27 27 27 27 26 25 25 25 25 25 24 24 24 24 23 21 21 20 20 20 18 19 19 19 19 19 19 19 19 19 20 20 20 21 21 21 21 22 21 19 19 19 18 18 18 18 18 17 17 18 19 19 19 20 21 22 24 26 28 30 32 32 32 33 34 35 35 36 37 38
27 27 28 27 27 27 26 27 27 26 26 26 25 24 25 26 26 26 25 25 25 25 25 24 24 24 23 23 23 21 20 19 20 20 20 18 18 18 19 19 19 19 19 19 19 19 19 19 20 20 20 20 21 22 20 18 18 18 18 18 18 17 17 17 17 17 17 18 19 21 22 23 25 28 30 31 32 32 32 33 33 34 35 37 36
26 27 27 26 26 26 26 26 26 26 25 24 24 25 24 25 25 26 25 24 24 24 24 24 24 23 22 22 22 21 20 19 19 19 19 18 18 18 18 18 18 18 18 18 18 18 18 18 19 19 19 19 20 22 20 19 18 17 17 17 17 17 17 16 16 17 17 18 19 20 21 22 25 28 29 30 31 31 31 32 32 33 33 35 35
27 27 26 25 25 25 25 25 25 25 23 23 23 24 24 24 24 24 24 24 23 23 22 23 23 23 22 21 21 20 19 19 19 19 18 18 17 17 18 18 18 17 18 18 18 18 17 17 18 18 18 18 19 20 20 18 18 17 17 17 17 16 16 16 17 18 18 18 18 19 20 22 25 27 28 29 29 30 30 31 32 32 32 33 34
27 26 24 24 24 24 24 24 23 23 23 23 23 23 23 23 23 23 23 23 23 22 21 21 22 22 22 21 21 20 20 19 19 19 19 18 17 17 17 17 17 17 17 17 17 17 17 17 17 17 17 17 17 18 19 18 17 17 17 17 16 16 16 17 17 18 18 19 19 19 20 22 25 27 28 28 29 30 31 31 32 32 32 32 33
27 25 24 23 23 23 23 23 22 23 23 23 23 23 23 23 22 22 22 23 22 21 20 21 21 21 21 21 21 20 20 19 18 18 18 18 17 17 17 17 16 16 16 16 17 16 17 17 17 17 17 17 17 17 17 17 16 16 16 16 16 16 16 16 17 17 18 19 20 20 21 23 25 26 27 27 28 28 29 30 30 31 32 32 32
26 24 24 23 23 23 23 23 22 22 22 22 22 23 23 22 22 22 21 22 21 20 20 20 20 21 21 21 21 20 20 19 18 18 18 17 16 16 16 16 16 15 16 15 15 16 15 16 16 16 16 16 17 16 17 16 16 15 15 15 15 15 15 16 16 17 18 18 20 21 22 24 24 25 26 27 27 27 28 28 29 30 31 31 32
25 23 23 23 22 22 22 21 21 21 21 21 22 22 22 22 22 21 21 21 20 20 19 20 20 21 21 21 21 20 20 18 17 17 17 16 16 15 15 16 16 15 15 14 15 15 15 15 15 15 15 16 16 16 16 16 15 14 14 14 14 15 15 16 16 16 17 18 19 21 23 23 24 25 25 26 26 27 27 28 28 29 30 31 31
23 23 23 22 22 22 22 21 21 21 22 21 21 21 21 21 21 21 21 21 20 20 20 20 20 21 21 20 20 20 19 18 16 17 17 16 15 14 14 15 15 15 14 14 14 14 14 15 14 14 15 15 15 15 15 15 14 14 14 14 15 15 15 15 16 16 16 17 18 21 22 22 23 23 24 25 25 26 26 26 27 28 29 30 30
23 23 22 22 21 21 21 20 20 21 21 21 20 20 20 20 21 21 21 21 21 19 19 19 20 21 21 20 20 20 18 17 16 17 16 15 14 14 14 14 14 14 15 15 14 13 13 13 13 13 14 14 14 14 14 14 13 13 14 15 15 15 15 15 15 16 16 18 19 20 20 21 22 22 22 23 24 24 25 25 26 27 27 28 29